Location: Eppenbrunn
(49.1158°N, 7.5601°E)
Time: 17:58:54
(UTC+00:00)

Cosmos 2181 Rocket - Pass Details

Date: 09 April 2020
Orbit: 952 x 1014 km, 82.9° (Epoch: 29 May)

Event Time Altitude Azimuth Distance (km) Brightness Sun altitude
Exits shadow 19:28:00 - 166° (SSE) 3,522 6.5 -12.2°
Reaches altitude 10° 19:30:12 10° 161° (SSE) 2,723 5.9 -12.5°
Maximum altitude 19:36:05 46° 90° (E) 1,278 4.3 -13.4°
Drops below altitude 10° 19:41:56 10° 19° (NNE) 2,705 6.5 -14.2°
Sets 19:44:31 0° 14° (NNE) 3,650 7.2 -14.6°
